Location: Cornospital
(48.0620°N, 3.3837°W)
Time: 15:44:10
(UTC+00:00)

Meteor 1-4 Rocket - Pass Details

Date: 17 June 2021
Orbit: 447 x 499 km, 81.2° (Epoch: 30 July)

Event Time Altitude Azimuth Distance (km) Brightness Sun altitude
Rises 23:10:13 0° 0° (N) 2,494 7.7 -17.1°
Reaches altitude 10° 23:12:41 10° 17° (NNE) 1,605 6.1 -17.2°
Maximum altitude 23:15:25 21° 69° (ENE) 1,075 4.4 -17.3°
Enters shadow 23:16:38 18° 98° (E) 1,194 4.3 -17.4°
